Location: Las Navas
(40.6024°N, 4.3345°W)
Time: 09:18:15
(UTC+00:00)

STARLINK-1121 - Pass Details

Date: 03 April 2020
Orbit: 549 x 551 km, 53.0° (Epoch: 30 May)

Event Time Altitude Azimuth Distance (km) Brightness Sun altitude
Rises 20:15:44 0° 306° (NW) 2,728 8.7 -17.4°
Reaches altitude 10° 20:17:59 10° 304° (NW) 1,831 7.5 -17.8°
Maximum altitude 20:22:07 66° 223° (SW) 605 3.8 -18.5°
Enters shadow 20:23:29 39° 155° (SSE) 836 4.1 -18.8°
